Location: Newark
(53.7833°N, 9.4833°E)
Time: 18:14:43
(UTC+00:00)

Envisat - Pass Details

Date: 19 December 2019
Orbit: 764 x 766 km, 98.1° (Epoch: 22 January)

Event Time Altitude Azimuth Distance (km) Brightness Sun altitude
Rises 17:03:37 0° 165° (SSE) 3,224 6.3 -16.5°
Reaches altitude 10° 17:05:54 10° 166° (SSE) 2,302 5.5 -16.8°
Maximum altitude 17:11:00 84° 255° (WSW) 779 3.0 -17.5°
Drops below altitude 10° 17:16:07 10° 344° (NNW) 2,318 5.5 -18.3°
Sets 17:18:26 0° 345° (NNW) 3,248 6.3 -18.6°
